Location: Bessat
(45.8735°N, 1.9924°E)
Time: 13:52:11
(UTC+00:00)

Cosmos 1821 Rocket - Pass Details

Date: 11 May 2021
Orbit: 945 x 1004 km, 82.9° (Epoch: 19 June)

Event Time Altitude Azimuth Distance (km) Brightness Sun altitude
Rises 23:31:12 0° 351° (N) 3,743 8.4 -25.9°
Reaches altitude 10° 23:33:45 10° 352° (N) 2,790 7.4 -25.9°
Maximum altitude 23:40:12 85° 81° (E) 1,013 4.0 -26.0°
Enters shadow 23:41:25 61° 163° (SSE) 1,125 4.0 -26.0°
